Tracking 27111 objects as of 28-Mar-2023
HD Live streaming from Space Station
objects crossing your sky now

SL-12 R/B(2)

Track SL-12 R/B(2) now!


NORAD ID: 14086
Int'l Code: 1983-016F
Perigee: 35,510.9 km
Apogee: 35,614.5 km
Inclination: 9.3 °
Period: 1,424.3 minutes
Semi major axis: 41933 km
RCS: 1.9413 m2 (large)
Launch date: March 12, 1983
Source: Commonwealth of Independent States (former USSR) (CIS)
Launch site: TYURATAM MISSILE AND SPACE COMPLEX (TTMTR)

Note: This is a ROCKET BODY
Your satellite tracking list
Your tracking list is empty




NASA's NSSDC Master Catalog

Two Line Element Set (TLE):
1 14086U 83016F   23086.20882743  .00000015  00000-0  00000-0 0  9996
2 14086   9.2573 307.2670 0012350 290.6534  62.6525  1.01101703111050
Source of the keplerian elements: AFSPC